Back to catalog

DELTA 1 DEB

AliveLEO
NORAD 7069·DEBRIS·🇺🇸 United States

Launched Nov 6, 1973 from Vandenberg Space Force Base

Loading…

Next Passes (next 24 hours)

TLE

FreshSource: Space-Track

Epoch: Sep 14, 2026, 03:18 UTC

1 07069U 73086BM  26257.13779276  .00001493  00000-0  16634-2 0  9999
2 07069 102.7775 326.2809 0247690 178.8992 181.2732 13.61527501574466

Track DELTA 1 DEB in real time with AllMySat

Download on the App Store